Showing default

ORBASTRO-TR5, 63236

Orbit data source: Space-Track

ORBASTRO-TR5, 63236 is a UK payload satellite in SSO that was launched on Sat, 15 Mar 2025 UTC via an FALCON 9 launch vehicle from the Air Force Western Test Range (AFWTR). Payload-class satellites include a variety of spacecraft equipped with specific instruments for various scientific and technological missions. These include communications satellites like Starlink; space stations such as the ISS; scientific satellites like the Hubble; Earth observation satellites from companies like Planet Labs, Umbra, and HawkEye 360; GPS; miniature CubeSats for education and research; and military/defense satellites.

Loading next visibility...
Identifier
63236, 2025-052AC
Orbit
SSO
Last TLE update
7 hours ago
Origin
Manufacturer
OrbAstro
Mission
Operational Commercial Technology
Bus & Motor
CUBESAT 6U, Unknown motor
Mass
~10 kg wet, ~10 kg dry
Launch date (UTC)
2025-03-15 (4 months ago)
Launch vehicle
FALCON 9
Launch site
Air Force Western Test Range (AFWTR)
Object type
Payload
Rocket body
Debris
Shape & HBR
Box, 0.3 m
Radar Cross Section
0.035 m², Small (<0.1 m²)

Expand to show TLE details & history

TLE from 7 hours ago
0 ORBASTRO-TR5
1 63236U 25052AC  25192.12978387  .00002405  00000-0  12311-3 0  9990
2 63236  97.4256  85.1653 0005979 280.5491  79.5069 15.17560590 18017
Epoch: 2025-07-11T03:06Z
TLE epoch observation values (Epoch: 2025-07-11T03:06:53.326Z)
Latitude
-0.00002°
Longitude
109.15697°
Altitude
515.554 km
Speed
7.606 km/s
True Right ascension
05h 40m 39s
True Declination
0° 00' 00"
Sunlit
Object was in daylight at epoch
Visualization orbit readout
Latitude
27.6708°
Longitude
-66.65998°
Altitude
519.245 km
Speed
7.605 km/s
Apparent Right ascension
14h 48m 58s
Apparent Declination
-8° 11' 52"
Sunlit
Object is in full shadow
Visualization observer readout
Local Sidereal Time
22:24:37
Azimuth
279.295° WNW
Elevation
-23.53°
Doppler factor
1
Orbital elements
Apogee altitude
514.304 km
Perigee altitude
506.067 km
Semi-major axis
6,888.323 km
Eccentricity
0.0006
Inclination
97.4256°
RAAN
85.1653°
Arg. of periapsis
280.5491°
True anomaly
Unknown
Mean anomaly
79.5069°
Eccentric anomaly
Unknown
Mean motion
3.79641 °/min
Orbital period
94.83 mins
BSTAR
0.00012311
Loading maneuver chart data...
Loading SW <> Apogee altitude chart data...
Loading historical data...
Loading historical data...
Loading historical data...
Loading historical data...
Loading historical data...
Loading historical data...
Loading historical data...

ORBASTRO-TR5 Visibility forecast

Observer location: undefined°, undefined°

Span
Click to sort rows by Start time (UTC) header in descending order
Start Az.
Max El. time (UTC)
Max El. Az.
Max El.
End time (UTC)
End Az.
4 mins2025-07-11 15:55:48.466Z104.512° ESE2025-07-11 15:57:48.466Z71.565° E15.18°2025-07-11 15:59:48.466Z36.078° NE
5 mins2025-07-11 17:29:48.466Z212.217° SW2025-07-11 17:31:48.466Z264.595° W28.174°2025-07-11 17:34:48.466Z325.326° NNW
4 mins2025-07-12 05:01:48.466Z62.238° ENE2025-07-12 05:02:48.466Z83.614° E20.674°2025-07-12 05:05:48.466Z143.939° SSE
4 mins2025-07-12 06:35:48.466Z320.69° NNW2025-07-12 06:36:48.466Z299.32° NW20.166°2025-07-12 06:39:48.466Z241.958° WSW
|